Tracking 25612 objects as of 19-May-2022
HD Live streaming from Space Station
objects crossing your sky now

ATLAS 5 CENTAUR R/B

Track ATLAS 5 CENTAUR R/B now!


NORAD ID: 39505
Int'l Code: 2014-004B
Perigee: 4,543.2 km
Apogee: 34,808.1 km
Inclination: 24.4 °
Period: 697.2 minutes
Semi major axis: 26046 km
RCS: Unknown
Launch date: January 23, 2014
Source: United States (US)
Launch site: AIR FORCE EASTERN TEST RANGE (AFETR)

Note: This is a ROCKET BODY
aabbcc
Your satellite tracking list
Your tracking list is empty




NASA's NSSDC Master Catalog

Two Line Element Set (TLE):
1 39505U 14004B   22138.60764774  .00000257  00000-0  00000-0 0  9992
2 39505  24.4122 244.6003 5809760 236.0413  54.9921  2.06526521 62751
Source of the keplerian elements: AFSPC